Time,TemperatureF,DewpointF,PressureIn,WindDirection,WindDirectionDegrees,WindSpeedMPH,WindSpeedGustMPH,Humidity,HourlyPrecipIn,Conditions,Clouds,dailyrainin,SolarRadiationWatts/m^2,SoftwareType,DateUTC
2013-04-20 00:00:00,59.3,33.7,30.18,NNE,22,2.0,6.0,38,0.00,,,0.00,0.00,VWS V14.00,2013-04-20 05:00:00,
2013-04-20 00:15:00,59.1,32.9,30.18,NNE,22,2.0,7.0,37,0.00,,,0.00,0.00,VWS V14.00,2013-04-20 05:15:00,
2013-04-20 00:30:00,57.3,35.0,30.18,NE,45,2.0,5.0,43,0.00,,,0.00,0.00,VWS V14.00,2013-04-20 05:30:00,
2013-04-20 00:45:00,56.7,35.6,30.18,North,0,1.0,6.0,45,0.00,,,0.00,0.00,VWS V14.00,2013-04-20 05:45:00,
2013-04-20 01:00:00,55.7,35.3,30.17,East,90,1.0,5.0,46,0.00,,,0.00,0.00,VWS V14.00,2013-04-20 06:00:00,
2013-04-20 01:15:00,54.7,35.9,30.17,ENE,68,1.0,4.0,49,0.00,,,0.00,0.00,VWS V14.00,2013-04-20 06:15:00,
2013-04-20 01:30:00,54.3,35.6,30.17,ENE,68,1.0,4.0,49,0.00,,,0.00,0.00,VWS V14.00,2013-04-20 06:30:00,
2013-04-20 01:45:00,53.2,35.6,30.17,ENE,68,1.0,4.0,51,0.00,,,0.00,0.00,VWS V14.00,2013-04-20 06:45:00,
2013-04-20 02:00:00,52.6,35.5,30.16,ENE,68,1.0,6.0,52,0.00,,,0.00,0.00,VWS V14.00,2013-04-20 07:00:00,
2013-04-20 02:15:00,52.3,35.2,30.16,NE,45,1.0,4.0,52,0.00,,,0.00,0.00,VWS V14.00,2013-04-20 07:15:00,
2013-04-20 02:30:00,52.1,36.0,30.15,ESE,112,0.0,3.0,54,0.00,,,0.00,0.00,VWS V14.00,2013-04-20 07:30:00,
2013-04-20 02:45:00,51.2,35.6,30.15,ESE,112,0.0,4.0,55,0.00,,,0.00,0.00,VWS V14.00,2013-04-20 07:45:00,
2013-04-20 03:00:00,50.7,35.6,30.15,East,90,0.0,4.0,56,0.00,,,0.00,0.00,VWS V14.00,2013-04-20 08:00:00,
2013-04-20 03:15:00,50.5,35.4,30.14,East,90,0.0,2.0,56,0.00,,,0.00,0.00,VWS V14.00,2013-04-20 08:15:00,
2013-04-20 03:45:00,50.3,34.8,30.14,East,90,0.0,3.0,55,0.00,,,0.00,0.00,VWS V14.00,2013-04-20 08:45:00,
2013-04-20 04:00:00,50.0,35.4,30.14,ENE,68,0.0,3.0,57,0.00,,,0.00,0.00,VWS V14.00,2013-04-20 09:00:00,
2013-04-20 04:15:00,49.6,35.9,30.14,ENE,68,1.0,3.0,59,0.00,,,0.00,0.00,VWS V14.00,2013-04-20 09:15:00,
2013-04-20 04:30:00,49.4,36.1,30.13,ENE,68,1.0,3.0,60,0.00,,,0.00,0.00,VWS V14.00,2013-04-20 09:30:00,
2013-04-20 04:45:00,49.1,36.2,30.13,ENE,68,1.0,4.0,61,0.00,,,0.00,0.00,VWS V14.00,2013-04-20 09:45:00,
2013-04-20 05:00:00,48.7,35.9,30.14,ENE,68,0.0,3.0,61,0.00,,,0.00,0.00,VWS V14.00,2013-04-20 10:00:00,
2013-04-20 05:15:00,48.2,35.4,30.14,ENE,68,0.0,3.0,61,0.00,,,0.00,0.00,VWS V14.00,2013-04-20 10:15:00,
2013-04-20 05:30:00,47.7,36.1,30.15,ENE,68,0.0,3.0,64,0.00,,,0.00,0.00,VWS V14.00,2013-04-20 10:30:00,
2013-04-20 05:45:00,47.5,35.9,30.15,ENE,68,0.0,4.0,64,0.00,,,0.00,0.00,VWS V14.00,2013-04-20 10:45:00,
2013-04-20 06:00:00,48.0,36.4,30.15,NE,45,1.0,5.0,64,0.00,,,0.00,0.00,VWS V14.00,2013-04-20 11:00:00,
2013-04-20 06:15:00,48.2,35.8,30.15,NE,45,1.0,4.0,62,0.00,,,0.00,0.00,VWS V14.00,2013-04-20 11:15:00,
2013-04-20 06:30:00,47.8,35.8,30.15,ENE,68,1.0,4.0,63,0.00,,,0.00,0.00,VWS V14.00,2013-04-20 11:30:00,
2013-04-20 06:45:00,47.2,36.0,30.15,ENE,68,0.0,3.0,65,0.00,,,0.00,0.00,VWS V14.00,2013-04-20 11:45:00,
2013-04-20 07:00:00,47.0,36.6,30.15,NE,45,1.0,4.0,67,0.00,,,0.00,3.00,VWS V14.00,2013-04-20 12:00:00,
2013-04-20 07:15:00,47.1,37.1,30.16,NE,45,1.0,4.0,68,0.00,,,0.00,14.00,VWS V14.00,2013-04-20 12:15:00,
2013-04-20 07:30:00,47.3,37.3,30.17,NE,45,1.0,3.0,68,0.00,,,0.00,30.00,VWS V14.00,2013-04-20 12:30:00,
2013-04-20 07:45:00,48.1,38.0,30.17,NE,45,1.0,4.0,68,0.00,,,0.00,58.00,VWS V14.00,2013-04-20 12:45:00,
2013-04-20 08:00:00,49.2,39.1,30.17,NE,45,2.0,5.0,68,0.00,,,0.00,44.00,VWS V14.00,2013-04-20 13:00:00,
2013-04-20 08:15:00,51.1,39.8,30.17,NE,45,2.0,5.0,65,0.00,,,0.00,132.00,VWS V14.00,2013-04-20 13:15:00,
2013-04-20 08:30:00,53.3,40.6,30.18,NE,45,3.0,10.0,62,0.00,,,0.00,316.00,VWS V14.00,2013-04-20 13:30:00,
2013-04-20 08:45:00,55.3,41.7,30.18,NE,45,3.0,9.0,60,0.00,,,0.00,375.00,VWS V14.00,2013-04-20 13:45:00,
2013-04-20 09:00:00,57.7,42.1,30.18,NE,45,3.0,8.0,56,0.00,,,0.00,433.00,VWS V14.00,2013-04-20 14:00:00,
2013-04-20 09:15:00,60.2,41.5,30.18,NE,45,3.0,8.0,50,0.00,,,0.00,492.00,VWS V14.00,2013-04-20 14:15:00,
2013-04-20 09:30:00,61.3,41.5,30.18,NE,45,3.0,10.0,48,0.00,,,0.00,546.00,VWS V14.00,2013-04-20 14:30:00,
2013-04-20 09:45:00,62.7,42.8,30.18,NE,45,3.0,7.0,48,0.00,,,0.00,599.00,VWS V14.00,2013-04-20 14:45:00,
2013-04-20 10:00:00,64.0,43.9,30.18,East,90,2.0,6.0,48,0.00,,,0.00,651.00,VWS V14.00,2013-04-20 15:00:00,
2013-04-20 10:30:00,65.5,45.3,30.18,East,90,3.0,10.0,48,0.00,,,0.00,747.00,VWS V14.00,2013-04-20 15:30:00,
2013-04-20 10:45:00,65.9,45.1,30.18,ESE,112,4.0,13.0,47,0.00,,,0.00,790.00,VWS V14.00,2013-04-20 15:45:00,
2013-04-20 11:05:00,66.6,45.8,30.18,East,90,4.0,12.0,47,0.00,,,0.00,831.00,VWS V14.00,2013-04-20 16:05:00,
2013-04-20 11:15:00,67.0,46.1,30.17,East,97,5.0,10.0,47,0.00,,,0.00,882.00,VWS V14.00,2013-04-20 16:15:00,
2013-04-20 11:30:00,67.0,46.7,30.17,ESE,112,4.0,10.0,48,0.00,,,0.00,898.00,VWS V14.00,2013-04-20 16:30:00,
2013-04-20 11:45:00,67.4,47.0,30.17,ESE,112,4.0,13.0,48,0.00,,,0.00,925.00,VWS V14.00,2013-04-20 16:45:00,
2013-04-20 12:00:00,67.7,46.2,30.16,ESE,112,4.0,11.0,46,0.00,,,0.00,951.00,VWS V14.00,2013-04-20 17:00:00,
2013-04-20 12:15:00,68.4,47.4,30.16,ESE,112,4.0,11.0,47,0.00,,,0.00,970.00,VWS V14.00,2013-04-20 17:15:00,
2013-04-20 12:30:00,68.7,48.2,30.16,East,90,4.0,10.0,48,0.00,,,0.00,980.00,VWS V14.00,2013-04-20 17:30:00,
2013-04-20 12:45:00,68.8,47.2,30.15,ESE,112,4.0,12.0,46,0.00,,,0.00,992.00,VWS V14.00,2013-04-20 17:45:00,
2013-04-20 13:00:00,68.9,47.9,30.14,ESE,112,4.0,12.0,47,0.00,,,0.00,1000.00,VWS V14.00,2013-04-20 18:00:00,
2013-04-20 13:15:00,68.9,49.0,30.14,ESE,112,4.0,12.0,49,0.00,,,0.00,1005.00,VWS V14.00,2013-04-20 18:15:00,
2013-04-20 13:30:00,69.0,48.5,30.13,SE,135,4.0,11.0,48,0.00,,,0.00,1009.00,VWS V14.00,2013-04-20 18:30:00,
2013-04-20 13:45:00,69.1,49.7,30.12,SSE,158,4.0,14.0,50,0.00,,,0.00,1006.00,VWS V14.00,2013-04-20 18:45:00,
2013-04-20 14:00:00,69.2,48.7,30.11,East,90,5.0,13.0,48,0.00,,,0.00,999.00,VWS V14.00,2013-04-20 19:00:00,
2013-04-20 14:15:00,69.1,50.2,30.11,SSE,158,5.0,15.0,51,0.00,,,0.00,987.00,VWS V14.00,2013-04-20 19:15:00,
2013-04-20 14:30:00,69.5,49.5,30.10,SSE,158,4.0,11.0,49,0.00,,,0.00,970.00,VWS V14.00,2013-04-20 19:30:00,
2013-04-20 14:45:00,69.4,50.5,30.10,SSE,158,4.0,11.0,51,0.00,,,0.00,950.00,VWS V14.00,2013-04-20 19:45:00,
2013-04-20 15:00:00,69.1,49.2,30.10,ESE,112,5.0,12.0,49,0.00,,,0.00,925.00,VWS V14.00,2013-04-20 20:00:00,
2013-04-20 15:15:00,69.0,49.6,30.09,SSE,158,4.0,13.0,50,0.00,,,0.00,896.00,VWS V14.00,2013-04-20 20:15:00,
2013-04-20 15:30:00,69.3,50.4,30.08,ESE,112,4.0,12.0,51,0.00,,,0.00,864.00,VWS V14.00,2013-04-20 20:30:00,
2013-04-20 15:45:00,68.9,50.6,30.07,SE,135,4.0,10.0,52,0.00,,,0.00,827.00,VWS V14.00,2013-04-20 20:45:00,
2013-04-20 16:00:00,68.5,50.2,30.06,ESE,112,5.0,11.0,52,0.00,,,0.00,787.00,VWS V14.00,2013-04-20 21:00:00,
2013-04-20 16:15:00,68.5,50.7,30.05,ESE,112,4.0,12.0,53,0.00,,,0.00,745.00,VWS V14.00,2013-04-20 21:15:00,
2013-04-20 16:30:00,68.8,51.0,30.05,ESE,112,5.0,12.0,53,0.00,,,0.00,698.00,VWS V14.00,2013-04-20 21:30:00,
2013-04-20 16:45:00,68.5,51.2,30.04,ESE,112,5.0,11.0,54,0.00,,,0.00,649.00,VWS V14.00,2013-04-20 21:45:00,
2013-04-20 17:00:00,68.5,52.2,30.04,ESE,112,4.0,12.0,56,0.00,,,0.00,601.00,VWS V14.00,2013-04-20 22:00:00,
2013-04-20 17:15:00,68.0,51.7,30.03,East,90,5.0,14.0,56,0.00,,,0.00,557.00,VWS V14.00,2013-04-20 22:15:00,
2013-04-20 17:30:00,67.6,51.4,30.02,ESE,112,5.0,12.0,56,0.00,,,0.00,502.00,VWS V14.00,2013-04-20 22:30:00,
2013-04-20 17:45:00,67.2,51.5,30.03,ESE,112,5.0,12.0,57,0.00,,,0.00,456.00,VWS V14.00,2013-04-20 22:45:00,
2013-04-20 18:00:00,66.8,51.6,30.03,ESE,112,5.0,13.0,58,0.00,,,0.00,399.00,VWS V14.00,2013-04-20 23:00:00,
2013-04-20 18:15:00,66.2,51.5,30.02,ESE,112,5.0,13.0,59,0.00,,,0.00,338.00,VWS V14.00,2013-04-20 23:15:00,
2013-04-20 18:30:00,65.7,51.5,30.03,ESE,112,5.0,13.0,60,0.00,,,0.00,272.00,VWS V14.00,2013-04-20 23:30:00,
2013-04-20 18:45:00,65.2,51.4,30.03,ESE,112,4.0,11.0,61,0.00,,,0.00,178.00,VWS V14.00,2013-04-20 23:45:00,
2013-04-20 19:00:00,64.7,51.4,30.02,ESE,112,4.0,11.0,62,0.00,,,0.00,46.00,VWS V14.00,2013-04-21 00:00:00,
2013-04-20 19:15:00,64.3,51.0,30.03,ESE,112,4.0,11.0,62,0.00,,,0.00,35.00,VWS V14.00,2013-04-21 00:15:00,
2013-04-20 19:30:00,63.8,51.4,30.03,East,90,3.0,10.0,64,0.00,,,0.00,24.00,VWS V14.00,2013-04-21 00:30:00,
2013-04-20 19:45:00,63.5,52.0,30.03,ESE,112,4.0,11.0,66,0.00,,,0.00,16.00,VWS V14.00,2013-04-21 00:45:00,
2013-04-20 20:00:00,63.1,52.0,30.03,ESE,112,3.0,9.0,67,0.00,,,0.00,5.00,VWS V14.00,2013-04-21 01:00:00,
2013-04-20 20:15:00,62.7,52.0,30.03,ESE,112,3.0,7.0,68,0.00,,,0.00,0.00,VWS V14.00,2013-04-21 01:15:00,
2013-04-20 20:30:00,62.5,51.8,30.03,ESE,102,3.0,5.0,68,0.00,,,0.00,0.00,VWS V14.00,2013-04-21 01:30:00,
2013-04-20 20:45:00,62.2,52.3,30.04,ESE,105,4.0,7.0,70,0.00,,,0.00,0.00,VWS V14.00,2013-04-21 01:45:00,
2013-04-20 21:00:00,61.9,52.8,30.05,East,90,2.0,5.0,72,0.00,,,0.00,0.00,VWS V14.00,2013-04-21 02:00:00,
2013-04-20 21:15:00,62.0,52.9,30.06,East,90,2.0,5.0,72,0.00,,,0.00,0.00,VWS V14.00,2013-04-21 02:15:00,
2013-04-20 21:30:00,61.9,52.4,30.07,East,90,1.0,5.0,71,0.00,,,0.00,0.00,VWS V14.00,2013-04-21 02:30:00,
2013-04-20 21:45:00,62.1,51.8,30.06,ESE,112,2.0,5.0,69,0.00,,,0.00,0.00,VWS V14.00,2013-04-21 02:45:00,
2013-04-20 22:00:00,62.8,54.0,30.06,ESE,112,2.0,11.0,73,0.00,,,0.00,0.00,VWS V14.00,2013-04-21 03:00:00,
2013-04-20 22:15:00,62.9,54.5,30.06,ESE,112,4.0,11.0,74,0.00,,,0.00,0.00,VWS V14.00,2013-04-21 03:15:00,
2013-04-20 22:30:00,62.5,54.5,30.06,ESE,112,3.0,9.0,75,0.00,,,0.00,0.00,VWS V14.00,2013-04-21 03:30:00,
2013-04-20 22:45:00,62.5,54.8,30.06,ENE,68,3.0,7.0,76,0.00,,,0.00,0.00,VWS V14.00,2013-04-21 03:45:00,
2013-04-20 23:00:00,62.3,54.7,30.06,East,90,3.0,10.0,76,0.00,,,0.00,0.00,VWS V14.00,2013-04-21 04:00:00,
2013-04-20 23:15:00,62.2,54.5,30.05,ESE,112,4.0,10.0,76,0.00,,,0.00,0.00,VWS V14.00,2013-04-21 04:15:00,
2013-04-20 23:30:00,62.2,54.5,30.05,ESE,112,4.0,11.0,76,0.00,,,0.00,0.00,VWS V14.00,2013-04-21 04:30:00,
2013-04-20 23:45:00,62.3,54.7,30.06,ESE,112,3.0,10.0,76,0.00,,,0.00,0.00,VWS V14.00,2013-04-21 04:45:00,